User: anonymous   Login
Location: Unspecified
(0.0000°N, 0.0000°E)
Time: 01:08:51
(UTC+00:00)
Language:

STARLINK-6352 - Orbit

View from above orbital plane
View from above orbital plane
View from above satellite
View from above satellite

Ground track
Ground track

The orbit is defined by the following mean orbital elements,

1 56782U          26145.35267344 +.00000000 +00000-0 +24154-4 0 00003
2 56782  69.9987 131.2933 0003154 269.7394  90.3404 14.98331763    08
Epoch (UTC): 25 May 2026 08:27:50
Eccentricity: 0.0003154
inclination: 69.9987°
perigee height: 570 km
apogee height: 574 km
right ascension of ascending node: 131.2933°
argument of perigee: 269.7394°
revolutions per day: 14.98331763
mean anomaly at epoch: 90.3404°

The dashed part of the orbit path shows where the satellite is in the earth's shadow,  

DLR